Theta_e
336 336 338 336 335 336 335 334 333 334 335 336 336 334 334 337 338 337 335 335 334 335 337 337 334 333 334 335 336 335 334 332 331 330 329 329 330 333 336 335 335 335 336 336 337 337 338 339 339 337 335 334 331 330 329 328 326 326 326 325 324 324 324 324 325 326 323 323 322 322 322 322 322 322 322 322 324 328 327 327 328 328 329 331 331
336 335 336 335 335 336 336 335 335 334 334 334 335 335 335 335 337 336 335 333 333 335 336 335 335 335 334 334 335 335 333 331 330 328 327 326 327 329 332 331 331 331 332 333 333 333 334 334 335 336 331 330 329 328 327 326 325 325 325 324 323 323 324 323 323 323 323 322 321 321 322 322 322 322 321 321 321 324 323 322 323 325 326 327 327
336 335 334 334 334 333 332 334 333 332 334 334 335 336 335 334 334 333 333 332 333 333 331 331 332 332 333 334 335 335 333 331 329 328 325 323 323 323 325 327 326 326 326 326 326 327 327 330 331 332 329 328 327 327 327 325 324 324 323 323 323 322 322 322 322 321 321 321 320 320 320 321 320 320 320 320 321 320 321 320 321 321 322 324 324
336 335 335 334 333 332 332 333 332 334 334 334 335 336 336 336 336 336 333 333 331 332 332 327 323 324 326 330 334 333 332 330 328 325 323 322 320 320 320 321 323 323 323 323 323 323 323 324 326 327 328 328 327 326 325 324 325 324 322 321 322 321 321 321 321 321 321 320 320 319 319 320 320 319 319 319 319 319 320 320 319 320 320 321 321
335 336 338 334 333 331 331 331 331 331 334 335 336 335 335 332 330 332 331 331 331 329 328 323 322 321 322 324 330 332 332 329 325 323 322 321 320 319 319 321 319 322 322 321 321 321 321 321 322 324 326 326 326 326 324 324 323 323 323 321 320 320 321 321 321 322 320 320 320 319 319 319 320 320 318 318 318 318 317 318 318 319 319 320 320
335 335 334 333 332 331 331 331 330 332 334 336 333 332 332 331 331 329 335 331 329 328 321 319 318 319 319 320 322 325 327 326 324 322 321 320 319 318 316 315 316 317 320 320 320 320 320 320 320 321 323 324 324 324 323 321 320 320 320 319 318 318 319 319 319 320 320 320 320 319 319 318 319 319 318 318 317 317 317 317 317 318 318 318 319
336 336 334 333 332 332 334 333 332 334 332 332 332 331 330 329 329 328 328 330 329 326 319 317 316 316 316 317 317 318 320 321 322 322 321 320 319 317 315 313 313 315 317 314 323 320 320 320 319 320 320 320 320 321 321 320 319 318 318 317 316 316 316 317 318 318 319 319 320 319 318 318 318 318 318 317 317 317 317 317 317 317 317 317 317
337 336 334 333 332 332 333 332 332 332 330 331 332 330 328 329 328 327 327 327 324 321 319 316 316 315 315 315 315 316 313 314 314 314 313 313 313 313 313 313 312 314 318 312 314 319 320 320 320 319 318 318 317 318 318 319 319 317 316 316 316 315 315 315 316 317 318 319 319 319 318 317 318 318 318 317 317 317 316 317 316 316 316 316 317
337 336 334 333 332 333 332 333 333 332 330 329 330 329 329 331 327 328 327 324 321 318 316 315 314 313 313 313 313 314 311 311 310 310 311 308 309 310 312 312 316 323 309 311 311 312 318 319 318 318 317 317 317 318 318 317 317 317 316 315 316 316 316 316 316 316 317 318 319 318 317 316 317 317 318 317 316 317 317 316 316 316 316 316 316
337 336 335 334 334 334 334 333 333 331 329 329 328 328 328 329 326 325 326 324 319 316 315 314 314 313 312 312 312 311 311 312 314 316 307 307 307 307 308 308 306 305 306 308 310 311 312 317 320 320 317 316 316 317 317 317 317 317 316 316 315 317 316 316 316 316 317 318 318 317 316 316 316 316 317 317 316 316 316 316 316 316 315 315 315
337 337 335 336 334 333 334 332 333 331 327 328 328 327 326 325 326 326 326 323 318 316 315 315 314 313 312 311 311 310 312 313 310 309 310 308 309 309 308 306 305 304 304 305 306 307 306 304 303 303 306 317 316 317 316 315 315 316 316 315 315 316 316 315 316 316 316 316 316 316 315 315 316 315 316 316 316 316 316 316 315 316 316 316 315
335 335 335 334 333 333 333 332 330 328 325 325 324 324 325 325 323 325 322 322 320 317 316 315 313 312 313 311 312 312 311 309 308 308 309 307 307 307 305 304 304 304 304 304 304 303 303 304 309 304 306 313 314 316 314 313 313 314 315 315 315 315 316 315 316 316 316 316 316 315 314 314 315 314 315 315 315 315 315 315 315 316 315 315 315
335 334 333 336 332 330 329 329 328 327 325 324 324 324 324 323 323 324 321 318 316 316 315 314 311 309 310 309 308 310 314 308 307 306 305 305 305 306 308 304 303 304 304 304 303 302 301 302 302 303 303 303 305 315 315 313 312 314 314 313 313 314 315 315 315 315 315 315 315 314 314 313 314 314 314 315 314 315 314 314 314 314 314 314 314
334 332 333 332 330 328 326 326 326 326 326 325 324 330 323 324 321 318 320 317 315 317 317 314 311 307 306 305 306 305 310 305 306 305 305 305 305 305 305 303 303 304 304 303 303 303 303 303 303 303 303 303 303 303 306 307 309 317 312 312 312 313 314 314 313 315 315 314 314 314 313 313 313 313 314 314 314 314 314 314 313 313 313 313 314
332 333 332 331 329 326 326 325 325 328 323 323 323 322 321 321 319 319 318 318 318 319 317 315 311 309 309 306 302 302 305 303 305 305 305 305 305 305 306 302 302 303 304 301 300 301 304 303 303 302 303 304 303 303 304 313 312 313 312 312 312 312 312 312 313 314 315 314 314 314 313 313 313 313 313 312 313 313 313 314 314 313 313 314 314
332 332 331 328 326 325 325 324 324 323 321 321 320 321 319 320 321 320 321 317 315 317 320 317 313 310 305 304 302 301 299 301 300 303 304 304 304 304 306 304 304 305 300 302 302 302 302 304 303 303 303 302 303 303 305 301 311 315 314 313 313 311 311 311 312 313 314 314 314 314 313 312 313 312 312 312 313 313 312 312 313 313 313 313 314
332 330 329 326 325 324 323 323 322 321 321 320 320 321 319 320 322 319 319 318 315 311 312 316 314 314 311 307 304 303 302 301 300 299 302 301 302 304 310 306 303 307 299 299 300 301 302 302 302 304 304 303 302 303 302 303 302 312 310 316 314 311 312 312 313 313 314 314 314 314 313 312 312 312 312 312 312 313 313 314 314 313 313 313 313
328 327 326 325 323 323 322 321 321 321 322 319 318 316 316 316 316 317 315 317 317 310 309 314 316 317 314 313 310 305 304 301 297 293 303 305 303 304 303 302 303 304 302 300 300 301 307 302 301 303 305 304 303 302 301 302 309 305 302 303 314 313 314 313 313 313 313 314 314 313 313 313 312 311 312 312 312 312 313 313 313 313 313 313 313
326 325 324 324 322 322 321 320 320 321 323 317 315 315 315 315 316 315 315 316 314 311 310 309 307 309 312 311 315 311 305 300 296 296 295 298 300 300 299 301 303 303 305 301 302 301 301 305 304 302 301 302 303 302 301 301 313 314 314 314 316 316 315 315 314 315 314 314 314 313 314 313 312 311 313 313 312 313 313 313 313 312 312 312 313
324 324 324 324 322 321 321 319 319 319 320 315 314 314 315 315 314 313 314 313 312 313 309 307 308 306 313 308 312 307 304 304 303 299 296 295 296 299 300 300 300 300 305 304 302 302 300 302 303 302 300 300 301 300 300 301 299 299 305 314 316 317 316 315 315 315 316 316 314 314 314 313 312 312 313 312 312 311 311 311 312 312 311 310 311
323 323 322 322 324 320 320 318 317 316 317 314 313 313 312 311 310 310 311 310 309 308 308 306 305 305 304 304 304 303 302 303 305 303 298 295 295 295 296 299 300 299 301 301 301 301 304 302 304 309 308 305 301 301 301 300 299 299 309 313 315 317 317 317 313 310 310 315 316 314 314 313 313 314 313 312 311 310 310 311 311 310 310 310 311
321 322 321 321 318 317 317 317 316 316 316 312 312 312 311 310 309 309 309 309 307 308 307 304 305 303 304 305 303 301 300 301 300 300 299 297 296 296 296 295 295 297 300 300 300 300 300 301 301 301 301 302 302 300 299 298 300 305 307 314 314 314 315 315 312 309 309 312 314 315 315 314 312 313 311 310 310 310 310 310 310 310 310 310 310
319 319 318 316 314 316 314 314 315 318 314 311 311 311 310 310 310 309 308 307 306 306 306 304 304 303 302 302 301 301 299 298 298 299 298 296 296 297 297 298 297 297 299 301 303 302 301 301 301 301 301 302 301 299 297 298 311 310 314 313 313 316 315 314 311 308 309 311 312 312 314 311 311 311 310 309 309 309 310 310 310 310 310 310 310
317 316 315 314 315 314 315 313 313 310 310 310 310 310 310 310 309 308 307 306 306 306 304 303 302 302 301 301 301 301 301 300 300 299 299 297 296 296 295 296 298 299 302 300 303 301 302 302 302 301 301 299 299 301 302 302 302 312 310 311 312 315 315 314 310 308 306 307 307 310 312 311 311 311 310 309 310 310 310 310 310 309 309 309 309
315 314 313 313 313 311 310 310 309 310 309 309 309 309 309 308 308 307 306 305 304 304 303 302 302 301 301 300 300 301 300 299 300 299 298 297 297 293 296 296 295 296 298 299 299 299 301 301 300 298 297 299 302 300 300 301 301 309 313 308 311 311 311 312 312 308 306 305 306 308 310 310 311 311 311 310 310 310 310 309 308 308 307 306 306
314 313 313 314 312 312 310 309 309 309 309 308 308 308 308 307 307 306 305 304 304 303 303 302 301 301 301 300 300 300 299 300 298 298 297 296 295 295 294 294 295 295 296 295 297 294 294 294 297 298 299 299 299 299 300 301 301 308 312 308 304 309 309 309 310 310 309 307 306 307 308 308 309 310 310 310 309 309 309 309 309 308 307 306 305
315 314 315 312 311 309 309 308 308 309 309 309 309 308 308 308 307 306 305 304 303 304 302 302 302 300 300 300 301 299 300 299 299 299 298 297 296 295 294 294 292 292 294 295 294 295 296 294 297 298 299 301 300 299 301 301 304 311 311 301 299 307 307 306 308 308 307 306 305 304 304 305 306 308 308 308 309 309 310 308 307 308 306 305 304
316 315 314 311 309 309 309 308 308 308 308 307 307 307 306 306 305 304 304 306 303 302 301 301 301 300 300 299 300 299 300 300 300 299 298 298 298 295 295 294 293 291 291 291 292 295 297 295 294 296 300 299 301 299 304 303 300 309 307 300 298 298 304 306 307 307 306 304 304 303 303 303 303 305 305 306 309 310 309 308 307 306 306 304 304
317 315 312 310 310 308 307 307 307 307 307 307 306 306 305 305 304 303 303 302 303 301 300 300 300 299 299 299 298 298 298 299 299 300 300 298 297 296 295 294 292 291 288 289 290 291 294 295 294 295 299 299 300 300 299 299 303 307 299 298 296 295 304 305 304 303 303 303 303 302 303 304 305 305 306 308 309 309 309 308 307 307 305 304 305
318 315 311 310 309 311 306 306 306 306 306 305 305 305 304 303 304 303 302 302 302 302 302 301 300 300 301 300 300 298 298 298 299 299 298 298 296 297 295 295 295 292 287 287 287 290 293 293 295 296 298 299 300 300 300 298 306 307 298 296 295 297 305 303 302 301 301 302 302 301 302 302 303 305 306 307 308 308 308 308 307 306 305 304 304
317 313 311 309 308 307 307 306 306 305 305 305 305 304 304 303 303 302 302 301 301 300 300 301 300 301 300 300 298 298 298 298 298 298 298 298 297 297 296 296 296 294 292 288 286 289 294 293 294 297 297 297 299 298 298 298 303 304 296 295 295 303 304 301 302 301 301 301 301 303 304 302 301 302 303 306 307 308 308 307 306 305 304 304 303
314 312 310 309 308 306 306 306 305 305 304 304 304 303 303 303 303 301 301 300 300 300 300 301 302 301 300 299 299 299 298 298 298 298 298 299 298 298 298 297 295 295 293 290 289 291 292 295 295 296 297 296 297 295 295 297 299 304 296 295 296 302 297 295 300 301 301 301 301 301 302 301 300 301 303 305 306 307 308 306 304 303 304 303 302
312 311 310 308 307 307 306 306 305 304 304 304 303 303 303 302 301 301 300 301 300 300 302 301 301 300 300 298 298 298 298 298 297 298 298 297 297 298 297 296 296 295 293 291 290 291 291 293 295 295 296 295 294 294 294 294 295 295 298 295 295 294 295 294 295 299 300 300 301 301 301 300 301 304 305 304 303 304 305 303 302 303 302 302 300
312 311 309 308 308 307 306 305 305 304 304 304 303 303 302 301 301 302 301 300 300 299 300 300 300 300 298 298 298 297 298 297 297 298 298 297 297 296 295 296 294 295 294 292 292 291 289 291 292 293 293 294 292 294 293 294 294 295 294 295 295 295 295 294 294 295 300 301 301 300 301 300 300 301 301 300 300 301 302 301 300 300 301 301 297
312 310 309 308 307 306 305 305 304 304 304 303 303 303 302 301 301 301 301 300 300 299 300 300 299 298 298 299 299 299 299 297 296 296 297 297 297 295 294 294 294 293 294 292 290 289 289 290 290 291 291 292 291 292 293 295 295 294 293 294 295 296 297 295 295 295 298 300 300 300 300 300 300 300 300 300 300 300 300 300 300 300 300 299 298
311 310 309 308 307 306 305 304 304 304 303 303 303 302 302 301 301 300 300 300 300 300 300 299 299 299 299 298 298 299 298 296 295 294 295 295 295 294 293 293 293 293 293 292 292 290 290 288 289 290 292 290 291 292 294 295 294 294 294 294 294 295 295 295 295 295 298 300 301 300 300 300 300 300 300 300 300 300 300 300 300 300 300 299 299
311 310 309 308 307 305 305 304 304 303 303 303 303 301 301 301 301 300 300 300 300 300 300 300 304 300 300 299 299 297 296 295 293 293 293 293 293 293 292 292 292 292 293 292 291 290 288 288 289 289 290 290 292 292 293 293 293 293 293 293 294 294 294 294 295 297 300 301 300 300 299 299 299 299 300 300 300 300 300 300 300 300 300 300 300
311 310 309 308 307 305 305 304 304 304 303 303 302 301 301 302 301 301 301 300 300 300 301 302 301 301 300 299 298 296 294 293 292 291 292 292 292 291 290 290 290 290 289 290 291 289 289 288 289 289 289 291 290 291 292 293 292 291 292 293 294 294 294 294 296 297 298 297 295 296 298 297 298 299 300 300 299 299 299 299 300 300 300 300 300
311 309 309 308 307 306 305 304 304 304 303 303 302 301 302 302 301 301 300 300 300 301 301 301 300 300 298 297 296 295 293 292 291 291 291 291 293 291 292 291 290 289 289 289 290 289 288 288 287 288 288 290 290 290 292 293 292 291 290 291 292 294 295 294 294 296 296 296 297 297 297 298 300 299 299 299 298 299 299 299 300 300 300 300 299
311 310 308 308 307 306 305 304 304 304 303 302 301 301 301 301 301 301 301 300 301 300 300 299 299 298 297 295 294 294 293 292 291 290 291 291 290 290 290 290 290 289 288 290 289 289 288 288 288 288 287 288 290 290 292 291 290 291 293 291 290 292 293 294 294 293 294 294 294 294 297 297 297 298 298 298 299 299 300 300 300 301 301 300 298
311 310 309 308 306 305 304 304 304 304 303 302 302 302 301 301 301 301 301 301 300 299 298 298 297 296 295 295 294 292 297 301 302 299 298 297 292 290 291 290 291 289 288 289 289 288 289 288 289 288 287 288 289 289 289 288 289 289 291 290 291 292 293 293 294 294 294 293 293 293 294 295 294 294 294 293 295 298 298 300 300 300 300 298 298
311 310 308 307 306 305 304 303 303 303 303 303 306 305 304 303 301 301 300 300 299 299 299 297 295 295 294 294 298 306 304 304 303 301 300 301 303 294 290 290 291 289 290 289 289 289 290 289 288 287 288 288 288 289 288 289 291 291 291 291 290 292 291 290 292 293 295 292 292 292 293 295 293 292 292 293 295 297 296 296 296 298 299 298 298
311 309 307 306 305 304 304 303 302 303 303 304 302 298 299 302 302 300 299 299 299 299 298 297 294 294 293 294 297 304 304 304 299 297 296 296 296 297 297 300 300 292 290 289 289 288 290 289 288 287 287 287 289 290 289 290 291 291 290 291 290 291 289 288 288 291 295 293 291 290 291 293 293 291 292 293 294 295 295 295 298 299 298 298 298
310 309 307 306 304 303 303 303 302 302 302 304 297 297 298 299 302 301 299 299 299 298 298 297 295 294 293 294 295 298 295 295 293 293 296 296 294 294 294 294 293 295 297 293 292 290 288 288 288 289 287 288 288 289 289 290 290 291 291 291 290 289 289 288 288 288 293 295 291 289 289 292 292 291 291 293 294 295 295 297 298 298 298 298 297
310 308 307 305 303 303 303 302 302 302 302 298 296 297 297 297 298 301 300 300 299 298 298 298 296 294 294 294 295 296 297 304 302 292 293 296 299 296 296 297 297 296 293 292 294 295 290 288 288 288 288 287 288 291 292 292 292 290 291 291 290 290 289 289 290 290 293 294 290 288 288 291 291 291 291 293 294 294 295 297 298 298 297 297 297
309 308 306 304 303 303 303 302 302 302 301 298 296 297 296 296 296 299 300 300 299 299 298 298 297 295 294 293 294 295 294 298 295 293 292 290 289 289 289 290 291 295 296 296 293 293 295 292 289 289 290 291 291 291 294 293 291 291 290 290 291 290 290 291 292 291 293 294 290 288 287 291 292 291 290 292 293 294 294 296 297 297 297 297 297
308 306 305 303 303 303 303 302 301 300 301 297 296 295 295 296 295 298 300 301 299 298 299 298 298 296 294 295 294 295 295 295 295 293 290 289 289 290 289 291 291 292 292 293 292 290 292 292 291 291 292 291 291 292 293 293 292 292 292 291 292 291 291 291 291 292 292 294 291 288 287 290 292 289 290 292 293 293 294 296 296 296 297 297 296
307 306 305 305 303 303 303 302 301 300 299 294 294 295 295 295 296 302 299 299 299 298 298 299 298 298 296 295 295 295 296 295 297 294 294 291 289 289 290 290 289 291 292 301 297 295 294 291 291 291 292 293 294 294 294 293 293 293 294 293 291 290 289 289 290 291 290 294 292 287 287 289 291 289 290 292 292 291 293 294 295 297 297 296 296
306 305 305 304 304 304 303 302 301 300 298 294 294 295 295 294 298 300 300 300 299 299 299 299 299 299 298 297 296 296 295 293 295 292 292 294 289 289 290 288 289 289 291 293 295 294 294 293 292 292 292 292 292 293 293 294 292 293 290 290 291 290 289 287 289 289 291 292 290 288 288 288 291 289 289 291 291 291 291 292 293 296 296 296 296
305 305 305 304 304 304 303 302 302 300 298 296 294 294 294 295 299 300 300 299 299 299 299 299 299 300 300 305 302 295 293 293 293 291 291 293 288 288 288 288 288 288 289 290 292 292 293 293 293 292 293 293 294 294 294 295 294 294 290 290 291 289 289 289 287 288 289 290 291 291 289 289 290 290 288 289 290 291 292 292 293 294 296 296 295
306 305 304 304 303 303 303 303 306 302 299 297 293 293 294 295 299 300 300 300 299 299 299 299 298 299 300 307 304 298 295 293 290 290 291 293 288 288 288 288 288 286 287 287 288 289 290 291 291 292 293 294 295 294 296 295 294 298 293 292 291 289 289 289 289 287 287 289 292 291 289 290 289 290 287 287 287 290 292 293 293 293 294 295 295
Wind_Speed
6 5 5 4 3 3 4 3 2 2 2 2 2 1 1 2 2 1 2 1 1 4 2 1 1 4 5 4 5 6 6 5 5 5 4 5 5 8 13 14 13 13 13 14 14 13 13 13 14 15 16 16 15 15 15 16 16 16 16 16 16 16 16 16 17 17 16 16 17 17 17 17 18 18 18 19 19 21 21 21 20 21 21 21 20
5 5 5 5 4 4 4 3 3 2 3 3 2 2 1 2 3 2 2 0 1 2 1 2 2 1 5 5 6 6 6 5 5 5 4 5 5 6 13 13 13 12 13 13 14 14 13 13 14 15 15 14 14 14 15 15 15 15 15 15 15 15 15 15 16 16 16 16 16 16 17 17 18 18 18 18 19 20 20 19 20 20 21 20 20
5 5 4 4 4 4 4 4 3 2 1 2 1 2 2 2 1 1 1 2 3 3 1 0 1 2 5 6 7 7 6 5 5 5 5 4 5 4 7 13 12 12 12 13 13 13 13 13 14 14 15 14 14 14 14 14 14 15 15 15 15 14 15 15 15 15 15 15 16 16 16 17 16 17 17 17 18 18 18 18 18 18 19 20 21
5 4 4 4 4 4 4 4 3 1 2 2 2 4 3 2 1 1 2 2 1 0 0 4 6 5 6 7 7 7 6 6 6 5 5 4 4 4 4 6 12 13 13 13 13 14 13 13 13 13 13 13 13 13 13 13 14 14 14 14 14 14 15 15 15 15 15 15 15 15 15 16 16 16 16 17 17 17 18 19 19 18 18 18 19
5 5 5 4 4 4 3 2 3 2 3 3 3 4 3 2 2 2 2 3 3 5 5 5 6 6 7 6 7 7 6 6 5 5 5 4 4 4 4 4 4 10 13 13 13 13 14 14 14 13 13 13 13 13 13 12 13 13 13 13 13 14 14 14 14 14 15 15 15 15 15 16 16 17 17 17 16 17 17 17 18 18 18 19 19
5 4 4 4 4 4 2 2 1 2 2 2 4 4 3 2 2 2 3 4 3 5 6 7 6 7 7 7 7 6 6 6 5 5 5 4 4 4 5 4 4 4 4 11 12 12 14 13 13 13 12 12 12 12 12 13 13 14 14 14 14 14 14 14 14 14 14 15 15 15 16 16 16 16 17 17 17 17 17 17 17 17 17 18 18
4 5 4 4 4 4 3 3 3 3 3 2 3 3 3 4 3 3 1 4 5 4 5 7 7 8 7 7 7 6 5 5 5 4 4 3 3 3 4 3 4 4 4 3 8 11 12 12 12 13 12 12 11 12 12 13 14 15 15 14 15 15 14 14 14 14 14 15 15 15 16 16 16 17 17 17 17 18 18 17 17 17 17 17 17
5 5 5 4 4 4 4 3 3 2 2 2 2 4 3 4 2 3 5 5 6 4 5 7 7 8 6 7 6 6 6 5 4 4 3 4 4 3 3 4 4 3 3 3 3 5 10 10 10 11 11 11 11 12 12 12 13 14 14 15 15 15 15 15 14 14 14 14 15 16 17 16 16 17 17 17 18 18 18 17 18 18 18 17 18
5 4 4 4 4 4 4 4 3 2 2 1 1 2 3 4 2 1 6 5 6 6 5 6 7 7 6 7 5 6 5 6 5 5 4 5 5 4 4 3 2 5 3 3 4 3 6 8 8 8 9 10 9 10 12 12 11 12 13 13 14 15 16 16 16 15 14 15 15 16 16 16 16 17 18 18 18 18 18 18 17 17 18 18 17
5 4 5 4 3 4 3 3 3 2 2 2 2 1 1 5 4 1 6 7 6 7 6 5 6 6 6 6 5 5 4 4 3 3 5 5 5 5 4 4 4 3 3 3 3 3 3 5 6 6 7 9 9 9 10 11 11 10 11 12 13 14 15 16 16 16 15 15 15 15 16 16 16 17 17 18 18 18 18 18 18 18 18 18 18
5 5 6 4 4 3 4 3 2 2 2 3 4 3 3 3 5 5 5 6 7 6 7 6 6 6 6 5 5 4 4 4 4 5 4 4 4 4 4 5 4 3 3 3 3 4 4 3 3 3 3 6 6 7 7 9 10 9 10 12 13 13 14 16 17 16 15 14 15 15 15 16 16 16 18 18 18 18 19 19 19 20 19 20 19
5 5 5 5 5 4 3 2 3 4 4 5 4 4 4 5 4 6 8 6 5 6 6 8 7 7 5 6 5 5 5 4 4 4 3 4 4 4 5 2 3 3 4 4 5 4 4 3 3 3 2 4 5 6 8 7 8 8 11 11 12 13 14 15 16 16 15 14 15 15 15 16 16 16 17 18 17 19 19 19 19 18 19 19 20
4 5 5 5 4 3 2 3 3 3 4 3 4 4 3 4 3 4 7 7 3 3 3 7 8 5 5 5 5 4 4 4 4 3 3 3 2 3 2 3 2 3 4 4 4 4 4 4 3 3 3 2 4 6 8 6 8 9 10 12 13 13 14 15 16 16 15 15 15 15 16 16 16 16 17 18 18 18 18 19 19 19 19 20 20
4 4 5 5 4 3 3 4 3 3 3 2 3 3 3 3 3 4 2 7 4 4 6 5 3 4 5 2 4 4 3 4 4 3 3 3 3 3 2 3 2 3 3 3 2 1 1 3 3 2 2 3 2 2 3 3 4 7 9 10 13 13 14 14 15 16 16 16 16 15 15 16 16 16 17 18 18 18 18 18 19 19 19 20 19
4 4 5 4 4 4 4 4 4 4 4 2 2 3 3 3 4 6 5 2 3 3 4 1 5 3 3 6 0 1 2 2 2 2 2 2 2 3 2 2 1 1 3 3 2 1 1 1 2 1 1 1 2 3 2 4 4 7 8 9 10 13 13 14 15 15 16 16 16 16 15 15 15 16 16 17 16 15 17 18 19 20 19 17 19
5 4 3 4 4 4 4 3 3 3 4 3 3 2 2 2 3 4 7 6 3 3 2 1 5 8 2 1 3 4 0 4 2 1 1 0 2 2 1 1 0 2 3 4 3 3 2 1 1 0 1 1 2 4 4 4 4 6 7 7 8 12 13 13 14 15 16 17 17 16 15 15 15 16 16 15 17 18 17 18 19 19 20 20 20
5 4 4 5 4 4 4 4 4 3 3 4 4 4 3 3 4 4 5 7 5 2 0 2 7 3 8 5 3 0 4 3 3 2 0 0 0 0 0 0 0 1 3 3 1 2 3 2 1 1 2 3 4 4 4 4 3 3 4 6 8 11 8 9 11 14 17 18 18 17 17 16 16 16 17 16 15 16 17 18 19 20 21 22 23
5 5 5 5 4 4 4 4 4 4 5 4 4 3 3 3 3 6 5 4 7 4 2 0 5 3 3 5 7 5 5 2 4 3 0 1 2 1 1 1 0 0 0 1 2 2 1 2 1 1 1 3 4 4 4 3 2 3 3 4 7 8 6 7 10 13 17 19 19 19 18 17 17 16 17 16 16 16 17 18 19 20 22 23 25
5 5 4 4 4 3 3 3 3 3 3 5 4 4 3 3 3 4 5 5 5 5 6 4 2 1 0 1 1 1 7 7 5 3 1 2 1 2 3 2 1 1 1 2 3 2 2 1 0 1 2 2 3 4 4 4 4 3 4 5 6 6 7 7 9 14 17 19 20 20 19 18 18 17 16 16 16 17 17 18 18 20 23 25 26
7 5 5 5 4 4 4 3 4 3 3 5 5 3 5 3 3 4 4 5 7 7 5 5 7 3 0 1 2 4 3 2 5 7 5 4 3 1 2 3 3 3 1 1 3 4 3 2 2 2 3 3 2 3 3 4 3 2 3 6 6 7 8 9 10 11 14 17 20 20 20 19 18 17 17 17 16 15 15 16 18 20 21 23 24
6 6 5 5 4 5 4 4 5 3 4 5 3 4 5 5 4 4 5 3 3 4 6 6 4 6 3 2 4 3 3 2 3 3 3 3 1 3 3 1 1 4 4 2 3 3 2 2 1 1 2 4 4 4 5 4 3 3 4 6 8 8 9 10 11 11 11 14 18 20 20 19 19 17 16 15 14 14 14 15 16 16 18 20 21
4 5 5 4 5 4 5 6 6 5 4 5 4 4 4 4 4 5 4 5 3 4 5 4 3 2 2 6 4 2 2 2 2 3 3 2 5 5 4 5 4 5 2 3 4 4 3 2 2 3 4 4 4 4 4 4 3 3 4 9 11 12 12 12 11 12 12 13 16 18 19 18 18 17 15 14 14 14 13 14 14 15 16 17 19
5 3 4 4 5 5 6 5 5 5 5 5 4 5 4 5 4 5 5 6 6 6 5 3 4 4 3 4 6 7 6 4 4 2 3 2 3 1 1 4 6 2 1 3 3 3 2 1 2 3 4 5 4 4 4 3 5 6 11 11 11 11 12 12 12 12 12 11 12 14 15 17 18 17 15 14 14 14 13 13 13 14 15 17 20
5 5 4 4 5 5 5 5 5 5 5 4 4 5 5 5 5 5 5 4 5 6 6 6 5 5 4 4 6 5 5 5 4 4 5 4 6 4 4 2 1 3 3 1 0 1 3 3 3 2 3 3 3 3 3 4 6 12 9 10 11 11 11 12 12 12 12 13 13 12 15 18 18 17 16 15 14 13 11 11 12 13 15 17 19
5 6 4 5 6 6 6 6 5 4 5 5 4 5 5 5 5 5 5 5 5 6 6 5 5 7 6 3 5 5 5 2 4 5 4 5 7 5 1 1 2 1 1 0 0 1 1 4 4 6 3 2 3 4 4 5 7 10 12 8 13 11 11 11 12 13 13 13 13 13 14 16 17 17 17 15 13 12 11 10 11 10 12 14 17
7 7 6 6 5 5 5 5 5 5 5 5 5 4 5 6 5 6 5 4 5 6 7 5 5 5 5 6 5 6 4 3 3 5 5 5 4 6 3 3 3 1 1 2 2 3 3 3 3 1 2 5 6 6 6 8 7 9 13 8 8 10 11 11 12 13 13 13 14 14 14 15 16 16 16 14 13 12 11 11 10 9 10 12 14
8 6 6 7 6 6 6 6 5 5 5 6 5 5 4 5 5 5 5 4 6 7 6 7 7 6 5 6 6 5 4 3 5 4 4 4 5 5 6 7 2 4 3 3 3 5 1 1 1 3 6 6 7 7 7 6 7 11 12 6 6 9 11 12 13 13 13 14 14 15 15 15 14 13 12 12 13 13 12 11 11 10 11 13 16
6 7 6 7 7 7 6 6 6 6 6 6 6 6 5 6 5 5 6 3 7 7 6 6 7 6 6 4 6 4 4 5 5 4 4 5 5 3 5 5 8 2 2 3 3 0 1 3 1 3 7 7 6 6 7 8 7 10 9 5 5 6 10 13 12 10 13 15 15 15 16 15 16 14 13 12 13 14 13 12 12 12 11 14 16
7 6 7 6 7 7 7 6 6 6 6 6 6 6 5 6 6 5 6 4 6 6 5 7 5 6 5 5 6 6 4 4 4 5 4 4 4 4 3 5 6 7 2 2 1 0 3 3 2 3 5 6 7 6 6 6 7 8 4 5 5 5 9 13 12 13 15 15 16 16 16 16 17 16 14 14 15 15 14 13 13 11 12 15 16
8 7 7 7 7 7 7 6 6 6 7 6 6 6 6 5 5 5 4 5 6 4 4 6 6 5 5 5 4 6 3 4 5 4 4 4 5 6 6 5 5 7 4 3 1 1 1 3 2 3 5 7 6 7 5 6 8 7 5 5 6 5 12 11 13 14 15 15 16 16 16 16 17 16 15 16 17 16 15 13 13 13 13 16 16
8 8 8 8 7 6 7 7 6 7 6 6 6 6 5 6 5 6 4 5 6 6 4 5 4 5 5 5 4 4 4 4 4 4 3 4 4 4 5 5 6 7 6 4 2 1 1 2 1 2 3 4 6 5 6 6 6 6 6 6 6 11 10 9 14 14 15 16 16 16 17 18 18 19 19 17 18 18 17 16 16 14 15 15 13
8 9 9 9 8 7 6 7 7 6 6 5 6 6 6 6 6 6 5 5 6 6 5 4 4 5 5 5 4 4 3 5 5 5 4 4 4 5 5 6 4 4 5 4 3 1 1 0 3 4 4 4 5 5 6 6 5 8 6 7 7 8 6 7 11 15 15 16 16 17 17 17 17 18 19 19 18 18 18 18 17 16 15 13 12
9 9 9 9 8 8 8 7 7 7 7 6 6 6 6 6 5 5 5 5 6 5 5 5 4 4 4 5 4 4 4 6 4 5 5 4 5 5 5 6 7 4 5 3 2 0 2 1 2 4 5 5 6 5 7 6 6 7 8 6 6 5 5 7 8 12 15 15 17 17 17 17 18 17 19 20 20 19 18 19 19 18 15 13 12
10 10 10 8 8 8 8 8 7 7 7 7 6 6 7 7 5 5 6 6 6 5 5 6 4 4 5 6 5 4 5 6 5 5 4 5 5 6 6 6 6 6 3 3 1 2 1 3 5 4 5 4 4 5 5 6 6 6 8 8 7 5 5 7 8 8 14 15 16 17 17 17 17 18 19 20 20 20 20 19 20 20 15 14 13
9 10 10 9 9 8 8 8 8 7 7 7 6 7 7 7 7 5 6 6 6 6 6 6 5 5 5 5 5 4 4 6 5 4 4 5 5 6 4 4 6 4 4 3 3 3 3 2 1 4 4 4 2 5 6 5 5 5 7 8 8 7 6 6 8 7 11 14 16 17 17 17 17 18 18 19 20 21 21 20 22 22 16 14 14
10 8 9 10 9 9 9 8 8 8 7 7 7 6 7 7 7 7 6 5 5 6 7 7 6 6 5 5 5 6 6 6 5 5 4 5 6 5 5 4 5 4 4 4 3 2 1 2 2 2 3 3 3 4 4 5 6 7 6 7 7 8 7 7 7 8 10 14 16 16 16 16 17 18 18 19 21 22 22 22 22 21 16 15 16
10 9 8 8 9 9 9 9 8 8 8 8 7 6 6 6 7 7 6 6 6 7 7 6 6 6 5 6 5 6 6 6 4 5 4 5 4 6 4 3 4 3 3 4 3 3 3 3 3 2 2 2 2 4 3 5 7 7 6 7 8 8 7 7 6 8 11 13 13 15 16 16 16 17 19 20 21 22 23 23 23 20 16 17 19
10 10 11 9 9 9 9 9 8 8 7 7 7 7 7 7 7 7 7 6 6 7 6 6 6 5 5 5 5 6 6 6 4 4 5 5 4 4 4 4 3 3 4 3 3 3 3 1 1 4 2 3 5 3 3 4 6 7 7 8 9 6 5 8 9 8 8 7 6 8 11 12 14 17 19 19 20 21 22 23 22 19 17 19 20
11 10 10 10 8 9 9 8 8 8 7 7 7 7 7 7 8 7 6 6 6 6 5 6 5 5 6 6 6 6 6 6 6 5 5 4 5 4 4 4 2 4 3 3 3 3 3 3 2 0 3 3 1 4 6 5 5 3 4 7 9 10 8 5 8 9 9 10 9 11 12 13 15 13 16 19 20 21 22 22 20 19 18 19 19
11 12 12 11 9 8 9 9 8 7 7 7 7 6 6 8 8 7 7 7 7 6 5 4 5 6 7 6 6 5 6 5 5 5 5 5 4 4 2 3 3 3 3 2 3 3 3 3 1 3 2 3 6 3 4 4 5 7 5 3 8 10 11 9 7 7 7 7 8 7 10 11 10 13 15 16 18 19 20 18 17 17 18 18 18
10 11 11 10 10 9 8 9 8 7 8 8 7 7 8 7 7 7 7 7 7 7 5 5 5 6 6 6 5 5 5 7 9 6 6 6 5 5 1 2 2 2 1 2 2 3 3 2 4 2 4 6 5 4 7 5 7 7 8 4 5 8 8 9 10 8 5 6 7 8 10 9 9 9 9 9 11 15 15 16 13 15 17 17 18
11 10 9 9 10 10 10 9 8 7 7 6 8 12 9 7 7 6 6 6 7 7 7 6 5 5 6 5 5 10 11 11 9 8 8 6 5 4 3 2 1 1 0 1 2 1 0 3 3 2 5 6 6 5 4 5 6 6 8 7 7 9 6 7 10 6 7 5 8 10 10 9 7 9 8 9 11 11 9 9 9 13 17 19 19
11 10 10 10 9 9 10 9 8 7 7 7 12 13 13 12 7 6 7 6 6 7 7 7 7 5 4 4 5 7 8 8 6 8 7 6 5 3 2 3 3 2 1 1 3 1 1 2 2 2 3 5 8 5 4 6 5 5 7 7 7 8 8 8 9 10 6 5 7 7 10 10 7 9 9 9 11 10 9 9 15 18 19 19 19
10 9 10 10 9 8 8 9 9 8 7 10 15 14 13 13 10 7 6 6 6 6 7 7 7 6 5 5 4 4 5 5 4 4 4 3 3 2 3 3 4 5 5 3 2 1 2 2 3 4 2 5 5 6 6 4 6 8 8 7 7 7 8 7 7 8 11 7 6 7 9 10 7 7 9 10 10 9 11 15 18 17 18 18 20
10 11 11 10 9 8 9 10 9 8 6 11 15 15 14 13 13 9 6 6 7 6 7 7 7 7 6 6 4 4 4 9 4 3 3 1 2 3 2 2 3 2 4 8 8 6 3 2 3 4 2 3 4 6 3 4 4 6 7 8 7 8 7 7 8 8 13 7 4 6 8 10 8 10 9 10 10 10 11 13 17 17 17 19 22
11 10 9 11 9 9 10 10 9 8 8 12 16 15 13 13 12 10 6 7 6 7 6 7 7 7 7 7 6 5 4 3 4 4 3 4 3 2 1 2 3 4 6 4 7 9 6 5 3 3 3 3 5 5 9 4 5 6 6 7 7 7 9 9 11 10 11 6 4 4 7 10 9 9 10 11 9 11 11 14 17 16 16 21 22
12 11 11 11 10 9 9 9 9 8 8 14 14 14 13 13 13 9 6 6 6 6 6 6 7 8 7 7 7 7 5 4 4 6 5 4 3 2 2 2 3 3 3 1 2 3 3 3 5 6 7 4 5 8 8 7 5 5 4 7 7 6 8 8 8 6 8 8 4 4 8 11 9 8 11 11 10 11 10 12 15 14 17 21 22
7 7 5 8 10 10 10 10 10 9 8 12 13 15 15 13 13 6 6 6 5 5 5 5 5 6 7 7 7 5 5 5 7 10 7 5 3 3 2 2 3 3 2 2 1 3 3 3 4 5 6 6 7 8 8 7 6 6 5 5 4 2 4 8 9 8 6 9 5 3 5 10 9 7 11 11 10 10 11 9 11 14 18 20 22
10 10 11 10 10 11 11 10 11 10 8 11 14 15 14 14 10 6 6 7 5 4 5 5 6 6 6 7 6 6 5 5 8 11 9 7 4 3 2 1 2 2 3 3 3 4 6 6 7 9 11 11 10 10 11 11 2 4 2 6 7 6 6 7 8 7 10 9 3 2 5 8 10 8 10 11 11 11 10 9 7 13 17 19 22
12 11 10 9 9 10 12 11 11 11 9 12 15 15 14 14 10 7 6 7 6 6 5 6 6 6 8 13 9 7 7 6 9 10 9 6 4 3 2 1 1 3 4 3 3 2 5 6 3 7 11 12 12 12 12 12 10 3 1 6 6 4 7 6 6 7 9 8 5 2 7 9 11 8 7 9 8 7 9 9 11 11 14 16 20
10 8 8 9 9 8 10 11 10 12 10 11 12 13 15 15 10 6 7 6 7 6 6 5 4 6 6 9 12 9 8 9 12 10 10 6 5 4 3 2 0 2 4 2 2 5 7 9 9 9 9 11 9 7 8 13 12 6 1 3 3 3 6 7 6 5 7 6 5 4 8 9 9 10 6 9 10 9 7 11 11 10 10 12 14
Wind_Direction
160 164 154 166 172 177 168 183 168 167 142 100 120 134 23 3 352 58 102 249 330 59 325 4 352 111 130 133 115 109 104 93 88 82 68 64 69 81 81 76 72 71 71 68 65 65 63 62 64 64 61 60 59 57 55 53 51 49 48 46 43 40 39 37 36 37 36 31 29 26 25 23 21 19 16 13 10 9 14 10 10 10 7 8 9
166 171 159 168 170 178 165 180 178 168 143 147 172 115 61 25 26 57 75 281 347 87 49 47 325 85 129 137 121 116 108 107 98 91 79 67 66 75 80 77 74 70 71 72 71 68 66 66 65 69 66 62 62 62 59 57 55 52 50 48 46 43 41 40 37 36 35 32 29 25 24 23 22 21 20 16 14 11 13 9 7 5 5 6 6
167 167 169 163 164 176 185 180 170 183 150 146 144 104 71 58 39 52 82 61 21 21 359 338 291 135 127 142 124 115 113 109 105 97 92 79 71 71 80 82 79 77 74 74 74 72 70 68 66 64 66 68 65 64 63 61 58 55 52 48 46 44 40 39 37 34 32 30 28 23 21 22 20 19 19 17 16 14 12 11 8 5 4 5 5
164 164 169 163 164 180 183 180 171 146 117 153 117 86 87 71 54 55 32 91 74 339 357 50 76 84 99 121 123 119 115 111 106 103 98 91 83 75 73 81 86 83 81 78 76 76 73 72 71 70 70 69 68 65 64 61 61 59 55 49 46 42 41 37 34 32 29 30 28 23 21 20 19 19 18 15 13 12 9 9 8 7 5 4 5
169 164 163 166 161 164 181 193 151 133 130 140 115 91 81 85 71 91 83 46 53 50 55 52 73 70 80 88 105 107 108 108 112 115 111 108 99 86 73 70 73 85 87 83 81 76 72 70 69 70 70 69 69 69 66 62 59 56 54 52 46 39 37 35 31 29 27 26 27 24 20 18 17 16 16 15 12 10 8 6 4 4 3 3 4
160 161 155 159 155 166 171 183 150 153 144 133 110 112 124 115 98 90 95 98 98 98 93 78 66 70 72 82 85 95 105 110 124 124 121 117 110 94 86 76 69 63 70 86 85 81 77 74 73 72 72 72 70 68 67 63 57 52 49 47 44 39 34 32 29 27 25 23 25 24 20 16 15 13 13 13 10 9 6 2 360 360 0 360 2
162 159 169 158 153 159 164 178 173 164 143 160 137 123 135 122 115 92 97 112 100 91 92 87 86 75 73 80 89 97 99 113 119 121 124 124 109 103 92 88 73 66 61 45 79 84 82 79 77 75 74 73 68 63 59 57 56 51 47 45 42 39 32 29 27 25 24 20 21 22 19 16 13 11 10 10 9 7 4 2 357 355 355 357 358
160 157 161 164 158 163 170 167 174 152 157 158 133 153 148 122 140 149 105 105 106 79 69 93 87 85 78 82 90 97 105 109 113 112 114 111 113 115 112 99 101 110 102 85 78 86 86 86 83 78 74 69 66 61 56 52 50 51 47 43 41 38 34 29 26 23 22 20 18 20 19 15 12 10 8 6 6 4 2 3 357 353 352 353 355
156 157 157 162 164 166 171 165 164 165 166 161 192 209 155 125 135 163 115 115 103 102 75 88 92 89 87 86 85 95 100 116 119 123 114 108 111 114 115 133 143 103 96 86 69 58 84 87 81 74 63 62 60 57 53 49 45 44 43 37 33 33 30 28 28 23 20 19 18 20 18 12 10 8 6 6 5 2 358 359 356 354 352 351 352
148 151 154 164 167 170 164 158 158 133 166 187 208 144 200 128 119 45 111 116 115 113 108 96 93 92 84 85 84 86 96 96 99 93 101 104 105 114 126 127 115 132 111 98 85 62 43 52 60 47 55 54 45 47 44 41 38 37 33 30 24 23 24 20 22 23 19 18 15 16 13 9 7 6 4 5 3 359 357 357 353 352 352 350 349
149 151 151 157 158 165 168 162 147 155 115 119 116 128 130 97 118 89 73 115 128 124 122 111 90 84 81 71 73 70 72 79 88 94 95 112 114 115 116 128 129 125 114 111 117 96 84 66 66 50 8 58 46 37 32 29 30 30 26 23 20 15 17 15 14 19 20 17 13 13 10 6 3 3 2 2 0 357 358 356 353 353 352 351 347
154 150 147 157 158 162 179 162 155 141 133 110 115 128 125 105 101 101 95 89 89 120 122 106 84 73 73 60 56 55 55 71 76 91 104 104 112 118 127 152 123 117 119 129 125 128 130 135 97 84 56 36 36 11 33 15 9 11 18 15 11 9 11 12 9 13 16 13 10 10 7 3 1 1 359 358 355 358 359 355 353 353 350 346 343
155 148 156 160 156 151 142 160 160 141 123 144 138 123 124 124 105 95 116 116 101 123 125 115 111 68 45 48 39 34 51 58 64 63 68 60 69 102 118 103 85 123 149 137 137 147 146 129 128 109 81 44 13 12 13 356 345 338 5 9 8 3 6 9 7 6 9 8 6 8 4 359 358 358 356 352 352 357 356 353 353 351 351 349 346
155 153 156 151 146 138 143 151 145 124 128 156 138 106 92 90 110 71 75 137 139 169 176 116 42 140 128 67 11 359 25 45 51 26 42 51 85 95 82 112 115 132 149 132 112 99 136 125 102 91 92 45 353 336 326 313 313 317 4 2 5 4 6 4 5 1 2 4 360 1 359 355 354 354 352 349 349 355 351 349 349 348 347 345 343
156 154 148 153 152 141 154 146 133 125 108 82 82 100 130 133 129 127 114 95 117 178 199 84 135 99 102 88 56 57 331 11 7 29 15 46 66 78 93 107 123 120 135 99 108 146 165 117 124 109 50 92 284 282 273 289 293 337 350 354 357 2 2 1 360 356 355 358 355 355 354 351 350 349 348 344 346 350 348 346 346 345 342 339 339
161 157 143 139 145 141 133 124 124 119 129 129 123 152 120 127 131 129 137 132 141 197 257 148 130 128 84 133 180 115 338 272 216 278 6 346 78 105 106 143 333 69 111 144 158 154 164 158 170 187 296 277 258 271 272 268 287 328 331 331 343 356 356 353 350 351 351 354 351 350 349 346 346 344 344 339 338 347 345 342 343 342 338 338 335
157 146 136 139 137 129 127 136 126 131 114 123 157 183 176 165 151 140 157 150 163 156 322 161 165 179 137 105 59 24 217 227 122 276 1 122 300 220 183 34 76 82 131 160 151 147 142 150 196 217 254 266 273 263 267 278 312 307 311 311 329 346 342 332 332 340 347 349 348 346 344 343 342 342 339 335 345 342 341 342 342 341 338 335 331
143 140 139 133 129 132 133 135 132 129 125 121 126 102 106 99 148 154 155 167 151 143 128 225 193 185 177 158 163 174 179 197 114 226 337 234 280 312 310 294 299 356 95 186 205 188 181 166 172 205 256 256 258 270 268 285 280 284 286 279 322 330 314 301 317 329 343 345 344 343 342 341 340 341 335 333 341 341 341 342 340 338 338 337 335
141 141 137 129 125 132 134 123 123 130 116 110 103 115 116 113 118 117 155 151 140 155 166 167 83 314 167 110 131 113 147 136 198 94 184 305 340 282 291 299 292 318 314 209 221 185 248 217 248 264 262 272 271 273 298 292 287 289 296 314 311 292 291 293 307 320 332 339 341 341 340 340 339 339 331 333 342 344 343 341 341 340 341 341 339
140 142 141 139 132 137 138 122 106 112 116 118 125 122 102 80 89 113 122 154 164 158 176 177 162 210 42 70 67 88 117 77 146 161 152 164 257 308 290 284 323 290 270 253 216 218 224 265 264 290 297 297 292 298 289 285 280 289 291 299 304 284 292 307 310 308 313 323 338 340 340 340 338 336 331 339 346 343 340 339 341 346 348 345 340
140 143 144 141 138 144 139 120 114 112 115 115 112 116 118 120 106 98 116 102 132 150 149 185 169 179 116 51 76 72 65 50 101 93 134 119 233 187 235 335 343 293 274 260 257 254 234 243 231 285 318 327 338 320 317 300 285 264 294 316 312 309 309 313 315 316 320 323 330 338 339 339 336 332 337 342 340 338 339 339 344 343 346 344 341
137 138 134 123 118 126 130 130 129 128 120 124 118 106 104 99 109 115 117 105 88 119 135 142 147 121 140 149 127 96 60 51 53 81 60 95 163 198 197 183 217 262 254 253 245 265 285 329 333 340 339 331 316 323 311 290 272 300 323 329 330 327 325 324 327 332 332 329 331 333 335 337 336 337 339 339 337 334 336 336 335 340 340 336 338
132 119 118 120 114 116 123 128 128 126 124 122 124 124 119 110 105 95 100 122 120 107 99 96 106 99 94 132 152 161 168 161 183 176 146 130 80 132 161 192 195 248 263 228 240 271 304 329 1 339 342 320 323 321 296 293 311 342 346 337 330 324 329 335 339 339 337 333 333 334 332 340 341 338 335 333 332 332 329 327 328 331 329 333 337
126 120 117 117 111 111 116 116 117 118 118 119 115 113 112 109 103 107 106 101 111 108 115 115 108 98 88 96 102 108 101 123 167 157 138 170 135 155 170 182 279 247 283 324 183 330 329 334 34 328 326 354 330 306 306 312 335 348 343 333 331 334 340 344 343 340 337 338 339 337 337 341 339 337 332 327 328 326 320 318 320 323 324 330 332
146 135 143 131 123 118 121 121 117 121 123 109 104 108 112 109 113 109 115 123 128 126 122 128 126 118 118 91 103 96 103 110 119 123 85 109 125 125 188 148 173 183 287 9 117 314 342 44 52 47 58 346 335 342 334 349 353 332 338 335 342 349 347 341 341 341 341 346 344 338 331 331 330 327 327 323 320 314 307 308 310 305 310 316 320
149 149 152 135 125 130 127 125 130 130 124 118 114 113 115 115 117 116 116 119 114 116 116 115 103 109 117 108 93 101 99 103 122 114 136 113 103 134 135 19 53 28 323 29 329 94 12 36 72 60 354 12 360 356 358 351 340 328 339 354 349 347 345 341 339 344 354 348 338 332 328 326 324 323 324 316 306 297 291 292 292 298 302 307 311
151 148 144 132 132 127 128 128 133 130 125 120 115 111 111 107 109 114 111 119 118 116 117 120 116 117 106 110 112 94 107 119 113 111 127 131 144 165 138 126 40 27 30 15 45 79 26 287 140 22 23 7 1 354 347 339 329 332 351 360 349 342 339 340 347 357 352 340 333 332 332 329 324 321 315 299 290 284 276 282 295 298 303 307 311
146 140 146 138 137 133 129 131 134 133 131 129 128 124 124 119 117 118 117 123 118 115 124 116 118 118 114 116 100 109 119 111 101 111 104 122 120 121 129 129 134 125 4 33 359 347 43 35 316 14 16 6 346 345 333 339 337 343 356 354 350 338 336 348 356 350 340 337 334 331 329 326 324 324 319 300 283 277 276 286 293 293 298 301 312
144 142 142 142 140 139 135 135 136 137 132 132 131 132 133 128 130 125 122 125 115 124 128 118 123 121 117 120 120 123 118 108 97 105 114 101 100 105 109 137 148 128 125 66 293 281 329 0 36 306 5 349 343 334 339 334 336 351 352 349 345 339 343 355 350 342 339 335 332 328 324 322 323 323 318 310 300 287 285 287 285 284 290 296 312
144 148 142 142 145 143 138 137 138 137 139 136 134 136 130 126 130 124 129 126 115 113 121 123 131 125 122 113 118 115 121 97 100 100 102 114 106 102 96 99 108 122 152 130 202 225 230 298 29 343 340 337 338 333 340 332 340 358 346 346 348 343 353 345 339 337 335 332 329 326 323 323 324 322 319 314 305 290 282 280 279 281 286 294 313
144 147 147 145 146 147 141 139 142 140 138 138 136 136 135 130 131 129 132 126 124 126 137 129 139 127 128 125 123 119 107 89 72 68 73 85 96 98 92 92 93 113 126 131 112 267 170 13 288 304 312 317 330 329 335 338 343 348 349 349 344 350 347 332 331 332 331 329 327 325 327 327 325 324 321 315 307 296 282 278 278 280 282 293 306
148 151 150 151 153 150 148 144 145 143 142 144 142 138 135 137 139 138 147 132 129 136 139 122 124 124 125 124 124 114 95 83 66 59 63 68 94 89 85 79 70 93 110 104 104 277 293 298 311 307 330 326 320 347 340 338 339 347 350 344 336 344 332 322 324 327 328 325 323 322 322 321 318 316 314 313 310 303 289 278 277 276 279 288 299
152 154 154 156 156 153 151 151 150 151 148 149 148 140 138 140 144 143 144 137 134 138 131 127 125 119 121 117 111 112 110 90 83 68 67 70 72 79 83 78 66 49 81 95 104 255 310 318 357 326 323 349 346 356 347 342 344 341 340 330 326 328 318 316 316 319 323 322 318 317 316 314 313 312 313 314 312 308 297 282 275 275 277 286 296
158 156 157 159 157 155 153 153 153 154 153 151 153 144 145 146 148 146 148 144 139 140 138 136 133 130 128 117 115 107 96 100 83 71 76 72 76 72 63 84 76 59 53 102 102 104 346 315 349 328 334 10 342 336 347 340 330 332 331 325 320 323 319 315 317 316 316 315 312 309 309 310 309 310 310 309 309 307 301 286 276 275 277 285 294
162 158 159 159 160 157 155 155 155 157 156 156 158 152 153 154 153 156 155 149 148 146 142 145 143 139 120 115 113 109 101 85 78 77 71 74 79 85 77 77 84 72 59 85 109 76 43 320 304 332 338 332 328 323 331 325 313 319 323 320 321 319 322 316 308 304 305 307 306 306 307 307 308 308 308 307 307 306 302 292 281 276 279 285 292
158 161 159 159 158 159 157 157 158 158 159 160 161 161 158 156 156 158 154 149 148 149 147 148 148 139 134 116 120 119 108 98 90 80 71 78 79 85 80 68 82 74 70 78 79 118 125 32 301 298 307 329 308 316 317 322 324 324 317 308 312 318 317 313 304 301 305 305 304 303 304 307 308 309 308 307 306 305 303 297 289 282 281 286 291
158 156 160 159 158 161 163 163 162 163 165 164 162 160 155 159 159 157 155 153 154 152 149 149 149 144 143 131 135 122 113 107 93 88 87 85 87 87 85 76 84 86 69 73 81 94 107 49 312 273 300 296 279 299 321 336 323 321 320 316 311 310 309 301 292 293 297 303 304 306 308 310 310 309 308 306 305 304 304 302 298 291 285 288 291
158 162 160 166 165 166 164 164 163 166 164 163 165 161 158 163 161 160 160 158 154 148 149 151 149 147 129 125 132 126 119 119 123 113 104 109 101 96 96 86 89 78 75 57 71 76 75 57 298 313 334 355 333 309 314 342 325 317 319 316 317 314 326 325 320 315 314 312 312 310 310 310 307 306 305 303 303 304 303 303 302 297 290 290 292
161 163 166 165 170 164 165 162 166 165 162 163 165 162 160 162 162 161 158 154 152 147 155 152 140 122 122 125 127 127 127 134 138 135 126 117 114 118 121 119 113 89 72 62 54 50 56 19 312 287 317 305 344 303 320 337 312 283 290 321 331 325 328 335 319 316 314 311 308 301 300 303 305 306 303 302 302 303 304 305 305 299 293 292 294
165 166 169 170 167 165 163 166 168 162 159 165 166 159 158 162 163 159 156 156 153 154 152 140 131 128 129 130 132 138 140 146 141 153 136 137 135 121 145 119 113 88 76 59 47 38 24 7 353 318 320 289 329 291 299 335 339 328 338 347 320 321 322 320 302 290 295 302 309 316 310 310 309 305 301 301 301 300 303 306 303 297 294 295 297
167 170 170 163 159 163 163 165 165 162 163 170 167 162 163 165 157 155 158 157 156 148 140 130 130 130 129 135 138 143 151 150 145 149 151 149 136 128 148 130 107 101 69 53 65 42 5 9 329 330 330 325 306 321 327 332 340 316 308 325 302 306 311 314 314 303 279 303 307 316 315 315 311 306 305 304 302 303 306 304 301 294 295 297 304
168 167 163 163 163 163 164 167 164 163 168 168 172 167 164 160 157 154 152 157 154 145 136 130 133 138 142 143 156 156 149 145 149 154 156 154 154 144 165 146 129 102 97 5 355 52 305 325 303 318 336 317 307 315 313 299 303 304 315 322 319 308 314 307 311 309 315 314 325 324 312 307 309 304 307 306 304 306 306 308 298 300 303 307 307
168 166 162 162 166 165 164 164 165 166 166 172 168 162 163 157 149 150 157 160 151 145 140 142 146 150 151 152 156 148 145 153 159 165 166 170 170 179 171 171 176 177 190 288 295 176 234 253 270 322 293 298 302 306 300 294 303 304 300 311 310 317 326 333 325 310 299 348 320 311 307 305 314 312 311 307 306 309 311 305 304 306 308 309 310
169 164 167 168 162 160 158 162 165 166 169 169 162 161 159 155 151 157 159 154 155 152 148 148 152 153 157 158 160 151 162 170 174 173 175 180 194 229 259 245 214 226 220 198 228 249 199 251 305 288 269 280 279 302 298 312 310 316 314 320 315 317 318 321 309 313 304 336 329 311 299 304 314 305 312 310 309 309 307 307 308 309 311 312 318
165 170 173 159 159 159 159 162 165 163 162 166 161 162 161 160 160 155 158 151 156 162 157 155 157 160 160 160 165 171 184 185 167 153 159 164 179 219 254 297 301 258 226 221 218 213 179 187 221 277 233 251 293 295 285 298 307 302 312 321 316 315 306 305 306 308 304 321 330 308 312 311 321 323 317 308 311 311 311 309 309 311 312 320 326
170 173 167 160 156 160 164 160 158 163 160 171 162 163 164 162 160 159 164 158 161 167 166 161 164 166 169 165 165 182 209 191 144 151 138 131 123 75 43 17 3 346 344 330 197 214 204 196 185 232 254 172 259 278 292 295 297 296 311 304 304 308 309 302 299 291 284 300 321 311 312 323 326 322 318 314 316 314 309 306 307 308 314 328 329
171 171 170 162 163 160 158 156 156 163 171 172 165 158 160 168 173 162 161 163 161 169 176 169 170 174 177 174 173 182 182 178 168 158 151 143 118 97 55 16 13 342 326 341 131 151 180 201 202 221 262 259 250 266 271 282 267 270 253 256 274 278 281 285 295 289 306 315 352 15 329 318 319 323 316 318 322 314 307 307 307 305 325 333 332
161 152 155 150 153 158 157 157 156 163 174 172 161 165 171 172 167 159 159 166 174 176 181 189 176 185 179 175 177 178 172 180 178 167 159 136 116 100 66 15 6 348 328 315 282 183 183 186 201 221 240 261 268 268 271 279 298 294 294 294 282 270 323 330 327 320 319 316 344 20 317 316 312 325 314 316 319 313 308 308 298 314 330 334 336
163 170 170 166 161 157 159 162 161 164 167 183 172 170 170 166 157 155 163 161 171 176 197 195 188 186 184 181 173 168 168 178 174 164 155 136 121 115 103 44 358 357 308 313 328 257 239 236 252 254 256 263 279 300 311 306 290 255 291 340 328 337 341 334 323 333 324 317 310 49 324 313 321 326 315 317 322 310 311 311 319 327 328 336 340
174 176 167 157 159 161 160 165 166 160 171 182 179 172 167 165 157 159 160 150 153 162 207 210 188 187 189 183 167 163 167 176 169 162 161 139 129 136 118 77 15 349 302 312 326 290 245 260 242 328 341 346 343 334 323 315 315 225 185 322 300 354 329 329 321 318 309 313 302 40 351 317 315 319 319 307 305 308 317 322 331 327 328 338 342
165 152 155 155 156 161 167 164 163 161 168 176 178 172 170 169 162 152 145 142 147 196 203 195 194 176 184 173 163 166 168 172 168 169 169 153 147 155 150 129 333 299 264 283 352 350 351 355 344 352 335 338 335 326 307 303 303 315 298 264 291 341 316 316 315 314 322 306 302 62 356 317 328 321 354 333 337 314 316 329 330 329 330 341 342